User: anonymous   Login
Location: Unspecified
(35.7250°N, 0.0000°E)
Time: 05:21:46
(UTC+00:00)
Language:

NANOSAT C BR1 - Orbit

View from above orbital plane
View from above orbital plane
View from above satellite
View from above satellite

Ground track
Ground track

The orbit data is extracted from the following two-line orbital elements,

1 40024U 14033Q   19233.77742555  .00000125  00000-0  18911-4 0  9993
2 40024  97.9117 155.8411 0011543 196.0196 164.0658 14.89871844280988
Epoch (UTC): 21 August 2019 18:39:29
Eccentricity: 0.0011543
inclination: 97.9117°
perigee height: 590 km
apogee height: 606 km
right ascension of ascending node: 155.8411°
argument of perigee: 196.0196°
revolutions per day: 14.89871844
mean anomaly at epoch: 164.0658°
orbit number at epoch: 28098

The dashed part of the orbit path shows where the satellite is in the earth's shadow,  

DLR